User: anonymous   Login
Location: Unspecified
(0.0000°N, 0.0000°E)
Time: 20:41:25
(UTC+00:00)
Language:

LANDSAT 8 - Orbit

View from above orbital plane
View from above orbital plane
View from above satellite
View from above satellite

Ground track
Ground track

The orbit data is extracted from the following two-line orbital elements,

1 39084U 13008A   14303.81508930  .00000294  00000-0  75255-4 0  6340
2 39084 098.2057 012.1712 0001203 073.4928 286.6392 14.57126759 91205
Epoch (UTC): 30 October 2014 19:33:43
Eccentricity: 0.0001203
inclination: 98.2057°
perigee height: 701 km
apogee height: 703 km
right ascension of ascending node: 12.1712°
argument of perigee: 73.4928°
revolutions per day: 14.57126759
mean anomaly at epoch: 286.6392°
orbit number at epoch: 9120

The dashed part of the orbit path shows where the satellite is in the earth's shadow,  

DLR